SCP
-0 -0 -0 -0 -0 -0 -0 -0 -0 -0 0 0 0 0 0 0 0 -0 -0 -0 0 0 0 -0 -0 -0 -0 -0 -0 -0 0 0 -0 -0 0 -0 -0 -0 -0 -0 -0 -0 -0 -0 0
-0 -0 -0 -0 -0 -0 -0 -0 -0 -0 -0 0 0 0 0 0 0 -0 0 -0 0 0 0 -0 -0 -0 0 -0 0 0 0 -0 -0 -0 -0 -0 -0 -0 -0 -0 -0 -0 -0 -0 -0
0 0 0 0 -0 0 0 0 -0 -0 -0 -0 0 0 0 0 -0 0 0 0 0 0 0 0 0 0 0 0 -0 -0 0 -0 0 0 -0 -0 -0 -0 -0 -0 -0 -1 -0 -0 -0
0 0 0 0 0 0 0 0 0 0 0 0 0 0 0 0 0 0 0 0 0 0 0 0 0 0 0 0 -0 -0 -0 -0 -0 -0 0 0 -0 -0 -0 -0 -0 -0 -0 -0 -0
0 0 0 0 0 0 0 0 0 0 0 0 0 0 0 0 -0 0 0 0 0 0 0 0 0 0 0 -0 -0 0 -0 -0 -0 0 0 0 -0 -0 -0 -0 -0 -0 -0 -0 -0
0 0 0 0 0 0 0 0 0 0 0 0 0 0 0 0 -0 0 0 0 0 0 0 0 0 0 0 0 -0 -0 0 -0 0 0 0 0 -0 -0 -0 -0 -0 -0 -0 -0 -0
0 0 0 0 0 0 0 0 0 0 0 0 0 0 0 -0 0 0 0 0 0 0 0 0 0 0 0 0 0 -0 -0 -0 0 -0 0 0 -0 -0 -0 -0 -0 -0 -0 -0 -0
0 0 0 0 0 0 0 0 0 0 0 0 0 -0 0 0 0 0 0 -0 0 0 0 0 0 0 0 0 0 0 -0 -0 -0 -0 -0 -0 -0 -0 -0 -0 -0 -0 -0 -0 -0
0 0 0 0 0 0 0 0 0 0 -0 0 -0 -0 0 0 0 0 0 -0 -0 0 0 0 0 0 0 0 0 0 0 -0 0 -0 -0 -0 0 -0 -0 -0 -0 -0 -0 -0 -0
0 0 0 0 0 0 0 0 0 0 -0 -0 -0 0 0 0 0 0 0 0 0 0 0 0 0 0 0 0 0 0 -0 -0 0 -0 -0 0 0 0 -0 -0 -0 -0 -0 -0 -0
0 0 0 0 0 0 0 0 0 -0 0 0 0 0 0 0 0 0 0 0 0 0 0 0 0 0 0 0 0 -0 -0 0 0 0 0 -0 -0 0 -0 -0 -0 -0 -0 -0 -0
0 0 0 0 0 0 -0 0 0 -0 0 0 -0 -0 0 0 0 0 0 0 0 0 0 0 0 0 0 0 0 0 -0 0 0 0 0 -0 -0 0 -0 -0 -0 -0 -0 -0 -0
0 0 0 -0 -0 -0 -0 0 0 -0 -0 0 -0 -0 0 0 0 0 0 0 0 0 0 0 -0 0 0 0 0 0 0 0 0 0 -0 -0 -0 -0 -0 0 -0 -0 -0 -0 -0
0 0 -0 -0 0 0 0 0 0 -0 -0 -0 -0 0 0 0 0 0 0 0 0 0 -0 0 0 -0 0 0 0 0 0 -0 0 0 0 0 0 0 -0 -0 -0 -0 -0 -0 -0
-0 -0 -0 0 0 0 0 0 0 -0 -0 0 0 0 0 0 0 0 0 0 0 0 0 0 0 0 0 0 0 0 0 0 0 0 0 0 0 0 0 -0 -0 -0 -0 -0 -0
-0 -0 0 0 0 0 0 0 0 0 -0 -0 0 -0 -0 -0 0 0 0 0 0 0 0 0 0 0 0 0 0 0 0 0 0 0 0 0 -0 0 0 0 0 -0 -0 -0 -0
-0 -0 -0 0 0 0 0 0 0 0 0 0 0 0 0 0 0 0 0 0 0 0 0 0 0 0 0 0 0 0 0 0 0 0 0 -0 0 0 0 0 0 0 -0 -0 -0
0 -0 0 0 -0 -0 0 0 0 0 0 -0 0 0 0 0 0 0 0 0 0 0 0 0 0 0 0 0 0 0 0 0 0 0 0 0 0 0 0 0 0 -0 0 0 -0
0 0 0 0 0 0 0 0 0 -0 0 0 0 0 0 -0 -0 0 0 0 0 0 0 0 0 0 0 0 0 0 0 0 0 0 0 0 0 0 0 -0 0 0 -0 0 -0
0 0 -0 0 0 0 0 0 0 0 0 0 0 0 0 0 -0 -0 0 0 0 0 0 0 0 0 0 0 0 0 0 0 0 0 0 0 0 0 0 0 0 0 0 -0 -0
0 0 0 0 0 0 0 -0 0 0 0 0 0 0 0 0 0 0 0 0 -0 0 0 0 0 0 0 0 0 0 0 0 0 0 0 0 0 0 -0 0 0 0 0 0 -0
0 0 0 0 0 0 0 0 0 0 0 0 0 0 0 0 0 0 0 0 0 0 0 0 0 0 0 0 0 0 0 0 0 0 0 -0 0 0 0 0 0 0 0 -0 -0
0 0 0 0 0 0 0 0 0 0 0 0 0 0 0 0 0 0 0 0 0 0 0 0 0 0 0 0 0 0 0 0 0 0 0 0 -0 -0 0 -0 0 0 0 0 0
0 0 0 0 0 0 0 0 0 0 0 0 0 0 0 0 0 0 0 0 0 0 -0 0 0 0 0 0 0 0 0 0 0 0 0 0 0 0 0 0 0 0 0 0 0
0 0 0 0 0 0 0 0 0 0 0 0 0 0 0 0 0 0 0 0 0 0 -0 0 0 0 0 0 0 0 0 0 0 0 0 0 0 0 0 0 0 0 0 0 0
0 0 0 0 -0 0 -0 0 0 -0 0 0 0 0 0 0 0 0 0 0 0 0 0 0 0 0 0 0 0 0 0 0 0 0 0 0 0 0 0 0 -0 0 0 0 0
0 0 0 0 -0 -0 -0 0 0 0 0 0 0 0 0 0 0 0 0 0 0 0 0 0 0 0 0 0 0 0 0 0 0 0 0 0 0 0 0 0 0 0 0 -0 -0
Wind_Speed_500mb
35 36 38 38 39 40 40 42 42 42 41 41 40 39 41 45 42 42 46 28 24 26 24 15 22 27 29 43 36 41 16 19 8 31 22 33 32 47 31 35 32 15 59 68 63
38 39 41 42 42 43 43 43 43 42 42 40 39 36 37 42 43 53 50 38 40 41 35 25 28 28 36 42 34 16 14 32 15 27 18 11 33 20 23 27 24 45 62 67 65
39 40 42 44 46 46 44 44 43 42 43 41 39 35 33 33 36 19 28 27 37 41 36 29 31 31 38 39 47 30 11 33 16 9 44 30 32 22 36 26 28 69 71 67 62
45 47 49 49 49 50 48 46 44 43 42 40 37 33 29 18 13 5 8 12 26 37 35 38 40 42 34 33 41 24 30 1 13 6 18 16 32 23 13 45 45 56 64 65 60
45 47 49 50 52 53 51 48 46 44 41 37 33 30 25 18 41 40 40 32 22 38 44 44 45 44 34 38 41 22 23 3 14 10 19 31 21 23 34 48 49 58 62 62 58
49 50 51 53 52 53 53 49 47 46 42 36 29 26 21 31 19 32 14 20 18 31 41 44 38 40 38 41 38 27 35 18 11 18 12 21 29 27 23 48 51 59 62 59 56
54 55 55 55 54 53 51 50 48 47 41 35 26 22 23 53 10 14 17 22 24 29 37 38 40 35 39 37 31 38 24 29 18 28 14 25 22 26 36 43 49 54 59 56 55
56 56 57 57 54 53 50 48 46 41 40 28 18 13 22 18 26 42 26 32 32 30 32 27 33 42 38 40 43 32 36 30 30 31 25 23 25 30 39 45 48 52 57 55 54
57 59 59 59 55 51 49 46 42 36 29 23 7 9 26 16 30 28 36 37 38 37 31 29 28 40 40 30 28 31 30 35 17 31 34 22 6 35 37 40 44 51 54 54 54
60 61 61 60 55 48 48 40 31 32 17 21 17 21 31 20 5 19 37 36 37 43 43 38 33 29 33 31 32 36 38 37 39 31 39 31 21 8 45 42 42 49 52 54 55
59 61 61 58 49 37 45 48 26 1 16 35 40 42 59 29 23 25 25 42 40 43 41 51 29 38 47 45 41 46 39 32 38 22 31 44 41 56 45 48 44 47 51 54 56
59 61 60 54 37 26 25 28 21 20 36 49 63 66 72 50 52 32 30 47 50 41 45 40 42 44 42 44 46 50 51 34 28 18 45 59 62 65 41 48 58 51 54 57 56
57 60 60 53 20 25 19 20 27 27 18 55 37 45 49 43 62 47 42 53 39 47 49 47 49 46 44 46 48 50 50 43 38 35 57 42 37 46 46 43 59 58 57 58 62
55 57 56 53 10 19 12 26 29 24 13 19 18 9 15 31 33 59 50 49 47 45 48 46 54 50 47 47 48 48 52 50 40 34 38 26 15 35 48 41 36 57 64 60 66
52 53 52 27 29 15 25 30 27 17 12 17 15 2 8 25 24 54 64 55 48 48 37 47 42 54 50 54 48 48 46 44 29 34 13 15 29 31 26 46 42 37 59 63 67
52 47 48 17 25 22 34 31 17 13 21 9 16 11 12 30 29 11 57 61 54 49 51 50 54 47 54 46 51 47 43 46 39 27 28 31 23 34 45 33 43 48 55 61 65
53 45 31 24 15 27 28 19 13 15 16 8 11 11 15 22 21 25 41 47 43 45 47 45 55 51 48 51 49 49 43 27 31 29 24 41 37 18 4 9 17 22 57 58 66
54 31 24 16 12 23 20 18 20 25 31 36 21 21 20 21 27 39 35 38 50 47 36 42 39 57 54 54 43 49 46 29 39 33 32 33 21 11 22 17 36 82 64 59 61
53 35 19 11 15 20 24 17 24 27 28 24 34 25 26 35 34 35 31 36 42 50 47 40 49 41 58 47 51 49 46 49 47 37 32 34 36 23 39 43 24 37 50 58 60
54 36 23 13 17 19 18 29 40 37 24 27 23 19 30 33 34 33 33 29 42 50 53 52 40 47 55 53 55 48 38 43 36 34 41 37 30 19 40 32 12 22 37 59 61
34 20 9 13 27 25 19 31 10 35 29 20 29 35 35 41 46 44 25 35 34 33 46 56 48 49 49 59 49 38 44 47 42 35 29 30 27 33 46 43 51 54 44 42 43
21 13 11 19 23 23 20 11 27 30 32 29 32 36 38 39 45 46 47 39 30 35 34 46 38 42 56 52 59 52 51 49 33 47 32 31 12 14 17 32 29 39 50 55 47
22 37 11 12 13 17 23 23 23 23 23 26 33 37 35 40 40 41 50 57 49 35 21 27 19 39 50 44 50 57 51 53 46 41 38 25 27 17 36 39 48 31 28 13 5
21 10 5 17 13 16 21 25 27 13 16 28 27 36 41 44 43 45 48 41 48 44 19 23 30 33 37 38 45 53 57 56 52 38 38 37 13 9 20 4 36 52 38 18 19
12 10 17 16 17 25 19 30 26 25 17 21 30 32 34 33 39 45 51 47 50 64 14 30 37 41 51 57 46 50 56 57 57 46 47 40 34 40 24 18 16 53 40 19 14
15 13 21 36 34 32 29 2 4 33 10 17 26 27 25 30 36 48 49 40 42 36 28 27 30 34 48 53 59 57 57 58 60 58 51 49 26 28 24 39 55 37 32 30 16
10 12 15 24 29 22 21 15 21 24 12 14 23 22 28 36 44 53 64 62 36 15 29 14 27 28 38 45 49 40 59 55 51 49 52 44 28 37 39 2 20 40 29 41 42
Wind_Direction_500mb
4 360 355 350 346 342 338 334 329 324 319 316 314 314 311 303 295 287 270 257 246 258 262 249 229 236 246 262 266 271 329 328 101 140 144 183 126 102 127 119 149 149 144 151 155
2 358 353 348 344 340 337 333 329 326 322 317 311 311 310 308 300 281 274 248 234 245 252 227 233 230 243 259 251 227 242 295 31 83 81 141 120 110 133 133 130 117 136 151 154
360 355 352 348 345 341 340 337 332 323 318 318 314 308 309 314 309 315 251 240 237 236 236 234 235 234 243 255 264 259 287 291 53 71 159 140 111 146 131 159 144 135 146 155 156
357 354 351 348 345 340 339 337 335 328 320 314 315 307 304 303 289 5 330 253 230 232 229 225 230 240 239 250 252 268 267 190 19 107 98 132 124 151 152 133 144 144 154 159 161
351 349 346 343 342 340 337 334 332 329 323 315 312 309 298 257 252 276 275 279 240 220 212 215 221 232 245 248 248 243 274 295 170 206 134 113 140 125 107 134 140 149 159 164 167
346 344 342 339 337 337 335 332 331 329 325 315 307 303 286 262 270 227 233 249 223 200 206 215 224 231 252 253 273 254 229 280 151 169 123 136 104 149 140 138 144 156 164 169 172
345 344 341 337 334 332 331 329 328 326 323 317 303 293 261 245 246 233 223 216 206 204 209 221 226 231 238 264 265 277 275 242 199 148 162 165 143 151 151 152 150 164 170 172 176
345 345 342 337 331 329 326 324 324 322 323 322 299 275 258 254 256 244 231 222 215 216 220 224 226 240 252 248 255 266 241 256 176 161 163 181 151 136 149 159 159 168 173 175 180
344 344 344 339 334 331 327 322 320 313 309 326 284 247 263 275 242 235 222 220 218 218 225 232 240 232 239 248 250 248 236 223 304 172 153 186 190 129 159 162 169 170 177 179 183
345 345 344 340 336 336 335 331 323 310 306 311 267 261 261 249 263 226 218 218 218 219 226 223 229 234 227 222 226 231 223 232 159 238 163 100 7 270 168 164 173 175 180 185 187
343 342 342 343 340 348 358 6 349 300 297 276 275 261 281 278 277 250 230 213 222 212 217 212 218 221 217 223 230 243 228 214 169 200 177 140 141 246 194 162 169 180 184 189 191
342 340 341 345 344 7 11 9 359 314 300 280 261 260 260 261 264 241 217 205 211 215 210 210 223 225 223 223 235 245 257 226 186 18 278 161 179 206 184 177 166 179 185 192 193
341 339 341 344 347 1 341 350 342 330 272 295 260 247 249 227 235 233 214 209 215 213 206 216 213 222 224 226 223 237 248 255 149 148 271 231 181 166 176 187 169 176 183 194 193
339 338 342 339 350 329 323 329 332 326 283 260 192 142 221 218 227 226 228 211 229 219 216 218 232 209 224 225 226 228 235 251 160 145 236 219 181 254 175 182 187 177 175 191 192
337 336 335 333 333 343 325 328 321 308 282 147 107 325 189 209 298 203 214 217 217 217 225 224 217 234 213 225 222 236 235 244 243 191 146 311 284 184 233 178 178 196 184 187 192
334 335 326 331 294 290 316 318 308 239 245 222 161 170 253 209 222 256 193 218 218 229 221 235 227 225 233 215 233 230 242 242 247 240 197 184 237 256 193 187 181 190 197 186 186
332 333 323 306 270 323 317 307 238 241 294 287 326 89 334 325 297 210 185 212 210 212 232 223 236 226 226 230 214 228 227 232 223 232 233 208 185 232 0 181 190 265 191 184 184
333 334 326 301 301 311 316 259 247 282 291 320 315 292 279 294 282 276 221 209 215 225 217 226 219 230 216 228 216 218 222 232 224 222 234 236 198 198 102 170 93 247 230 180 191
335 332 291 241 304 313 288 245 242 248 331 332 326 304 288 265 245 264 263 237 225 218 236 223 232 207 232 211 230 214 219 232 243 231 228 232 194 114 154 156 138 255 194 178 189
332 320 263 217 317 295 263 263 289 307 358 341 299 313 301 304 298 222 246 243 242 239 223 247 254 226 205 226 221 231 213 225 236 228 252 229 214 176 174 170 147 305 182 174 181
338 298 145 282 305 265 247 253 330 7 7 344 314 306 307 305 306 302 277 240 275 239 228 233 250 260 217 207 209 211 229 215 237 239 234 249 223 203 180 164 165 195 185 179 182
313 287 13 323 284 237 244 21 354 327 323 306 289 285 284 287 288 290 284 274 353 342 311 237 237 250 260 207 213 214 220 229 222 227 227 257 263 336 223 174 184 186 200 179 186
303 293 253 323 284 328 344 333 325 309 316 321 313 308 300 278 276 273 281 285 310 309 326 347 274 236 248 218 203 217 213 226 223 238 238 229 234 49 263 237 182 153 114 92 237
300 308 315 297 265 320 328 311 289 291 348 322 304 299 283 281 261 261 267 272 278 271 330 324 280 265 241 242 187 201 220 214 227 219 230 236 220 272 269 256 175 122 116 166 223
284 311 330 296 324 320 304 276 322 328 315 299 306 285 271 298 285 267 250 256 265 271 254 268 263 277 258 263 222 198 212 221 223 228 223 231 210 196 249 189 354 113 118 111 157
305 330 322 295 281 276 274 358 251 283 349 298 306 299 299 264 272 300 320 278 246 266 252 255 270 265 260 256 261 201 205 218 224 223 236 228 184 173 267 173 179 146 124 123 145
292 298 296 289 280 285 304 294 301 296 309 301 281 273 264 261 278 278 289 282 295 270 273 299 278 258 251 251 255 243 199 207 224 217 226 233 207 182 172 196 192 118 173 154 138
Wind_Speed_850mb
35 36 38 38 39 40 40 42 42 42 41 41 40 39 41 45 42 42 46 28 24 26 24 15 22 27 29 43 36 41 16 19 8 31 22 33 32 47 31 35 32 15 59 68 63
38 39 41 42 42 43 43 43 43 42 42 40 39 36 37 42 43 53 50 38 40 41 35 25 28 28 36 42 34 16 14 32 15 27 18 11 33 20 23 27 24 45 62 67 65
39 40 42 44 46 46 44 44 43 42 43 41 39 35 33 33 36 19 28 27 37 41 36 29 31 31 38 39 47 30 11 33 16 9 44 30 32 22 36 26 28 69 71 67 62
45 47 49 49 49 50 48 46 44 43 42 40 37 33 29 18 13 5 8 12 26 37 35 38 40 42 34 33 41 24 30 1 13 6 18 16 32 23 13 45 45 56 64 65 60
45 47 49 50 52 53 51 48 46 44 41 37 33 30 25 18 41 40 40 32 22 38 44 44 45 44 34 38 41 22 23 3 14 10 19 31 21 23 34 48 49 58 62 62 58
49 50 51 53 52 53 53 49 47 46 42 36 29 26 21 31 19 32 14 20 18 31 41 44 38 40 38 41 38 27 35 18 11 18 12 21 29 27 23 48 51 59 62 59 56
54 55 55 55 54 53 51 50 48 47 41 35 26 22 23 53 10 14 17 22 24 29 37 38 40 35 39 37 31 38 24 29 18 28 14 25 22 26 36 43 49 54 59 56 55
56 56 57 57 54 53 50 48 46 41 40 28 18 13 22 18 26 42 26 32 32 30 32 27 33 42 38 40 43 32 36 30 30 31 25 23 25 30 39 45 48 52 57 55 54
57 59 59 59 55 51 49 46 42 36 29 23 7 9 26 16 30 28 36 37 38 37 31 29 28 40 40 30 28 31 30 35 17 31 34 22 6 35 37 40 44 51 54 54 54
60 61 61 60 55 48 48 40 31 32 17 21 17 21 31 20 5 19 37 36 37 43 43 38 33 29 33 31 32 36 38 37 39 31 39 31 21 8 45 42 42 49 52 54 55
59 61 61 58 49 37 45 48 26 1 16 35 40 42 59 29 23 25 25 42 40 43 41 51 29 38 47 45 41 46 39 32 38 22 31 44 41 56 45 48 44 47 51 54 56
59 61 60 54 37 26 25 28 21 20 36 49 63 66 72 50 52 32 30 47 50 41 45 40 42 44 42 44 46 50 51 34 28 18 45 59 62 65 41 48 58 51 54 57 56
57 60 60 53 20 25 19 20 27 27 18 55 37 45 49 43 62 47 42 53 39 47 49 47 49 46 44 46 48 50 50 43 38 35 57 42 37 46 46 43 59 58 57 58 62
55 57 56 53 10 19 12 26 29 24 13 19 18 9 15 31 33 59 50 49 47 45 48 46 54 50 47 47 48 48 52 50 40 34 38 26 15 35 48 41 36 57 64 60 66
52 53 52 27 29 15 25 30 27 17 12 17 15 2 8 25 24 54 64 55 48 48 37 47 42 54 50 54 48 48 46 44 29 34 13 15 29 31 26 46 42 37 59 63 67
52 47 48 17 25 22 34 31 17 13 21 9 16 11 12 30 29 11 57 61 54 49 51 50 54 47 54 46 51 47 43 46 39 27 28 31 23 34 45 33 43 48 55 61 65
53 45 31 24 15 27 28 19 13 15 16 8 11 11 15 22 21 25 41 47 43 45 47 45 55 51 48 51 49 49 43 27 31 29 24 41 37 18 4 9 17 22 57 58 66
54 31 24 16 12 23 20 18 20 25 31 36 21 21 20 21 27 39 35 38 50 47 36 42 39 57 54 54 43 49 46 29 39 33 32 33 21 11 22 17 36 82 64 59 61
53 35 19 11 15 20 24 17 24 27 28 24 34 25 26 35 34 35 31 36 42 50 47 40 49 41 58 47 51 49 46 49 47 37 32 34 36 23 39 43 24 37 50 58 60
54 36 23 13 17 19 18 29 40 37 24 27 23 19 30 33 34 33 33 29 42 50 53 52 40 47 55 53 55 48 38 43 36 34 41 37 30 19 40 32 12 22 37 59 61
34 20 9 13 27 25 19 31 10 35 29 20 29 35 35 41 46 44 25 35 34 33 46 56 48 49 49 59 49 38 44 47 42 35 29 30 27 33 46 43 51 54 44 42 43
21 13 11 19 23 23 20 11 27 30 32 29 32 36 38 39 45 46 47 39 30 35 34 46 38 42 56 52 59 52 51 49 33 47 32 31 12 14 17 32 29 39 50 55 47
22 37 11 12 13 17 23 23 23 23 23 26 33 37 35 40 40 41 50 57 49 35 21 27 19 39 50 44 50 57 51 53 46 41 38 25 27 17 36 39 48 31 28 13 5
21 10 5 17 13 16 21 25 27 13 16 28 27 36 41 44 43 45 48 41 48 44 19 23 30 33 37 38 45 53 57 56 52 38 38 37 13 9 20 4 36 52 38 18 19
12 10 17 16 17 25 19 30 26 25 17 21 30 32 34 33 39 45 51 47 50 64 14 30 37 41 51 57 46 50 56 57 57 46 47 40 34 40 24 18 16 53 40 19 14
15 13 21 36 34 32 29 2 4 33 10 17 26 27 25 30 36 48 49 40 42 36 28 27 30 34 48 53 59 57 57 58 60 58 51 49 26 28 24 39 55 37 32 30 16
10 12 15 24 29 22 21 15 21 24 12 14 23 22 28 36 44 53 64 62 36 15 29 14 27 28 38 45 49 40 59 55 51 49 52 44 28 37 39 2 20 40 29 41 42
Wind_Direction_850mb
4 360 355 350 346 342 338 334 329 324 319 316 314 314 311 303 295 287 270 257 246 258 262 249 229 236 246 262 266 271 329 328 101 140 144 183 126 102 127 119 149 149 144 151 155
2 358 353 348 344 340 337 333 329 326 322 317 311 311 310 308 300 281 274 248 234 245 252 227 233 230 243 259 251 227 242 295 31 83 81 141 120 110 133 133 130 117 136 151 154
360 355 352 348 345 341 340 337 332 323 318 318 314 308 309 314 309 315 251 240 237 236 236 234 235 234 243 255 264 259 287 291 53 71 159 140 111 146 131 159 144 135 146 155 156
357 354 351 348 345 340 339 337 335 328 320 314 315 307 304 303 289 5 330 253 230 232 229 225 230 240 239 250 252 268 267 190 19 107 98 132 124 151 152 133 144 144 154 159 161
351 349 346 343 342 340 337 334 332 329 323 315 312 309 298 257 252 276 275 279 240 220 212 215 221 232 245 248 248 243 274 295 170 206 134 113 140 125 107 134 140 149 159 164 167
346 344 342 339 337 337 335 332 331 329 325 315 307 303 286 262 270 227 233 249 223 200 206 215 224 231 252 253 273 254 229 280 151 169 123 136 104 149 140 138 144 156 164 169 172
345 344 341 337 334 332 331 329 328 326 323 317 303 293 261 245 246 233 223 216 206 204 209 221 226 231 238 264 265 277 275 242 199 148 162 165 143 151 151 152 150 164 170 172 176
345 345 342 337 331 329 326 324 324 322 323 322 299 275 258 254 256 244 231 222 215 216 220 224 226 240 252 248 255 266 241 256 176 161 163 181 151 136 149 159 159 168 173 175 180
344 344 344 339 334 331 327 322 320 313 309 326 284 247 263 275 242 235 222 220 218 218 225 232 240 232 239 248 250 248 236 223 304 172 153 186 190 129 159 162 169 170 177 179 183
345 345 344 340 336 336 335 331 323 310 306 311 267 261 261 249 263 226 218 218 218 219 226 223 229 234 227 222 226 231 223 232 159 238 163 100 7 270 168 164 173 175 180 185 187
343 342 342 343 340 348 358 6 349 300 297 276 275 261 281 278 277 250 230 213 222 212 217 212 218 221 217 223 230 243 228 214 169 200 177 140 141 246 194 162 169 180 184 189 191
342 340 341 345 344 7 11 9 359 314 300 280 261 260 260 261 264 241 217 205 211 215 210 210 223 225 223 223 235 245 257 226 186 18 278 161 179 206 184 177 166 179 185 192 193
341 339 341 344 347 1 341 350 342 330 272 295 260 247 249 227 235 233 214 209 215 213 206 216 213 222 224 226 223 237 248 255 149 148 271 231 181 166 176 187 169 176 183 194 193
339 338 342 339 350 329 323 329 332 326 283 260 192 142 221 218 227 226 228 211 229 219 216 218 232 209 224 225 226 228 235 251 160 145 236 219 181 254 175 182 187 177 175 191 192
337 336 335 333 333 343 325 328 321 308 282 147 107 325 189 209 298 203 214 217 217 217 225 224 217 234 213 225 222 236 235 244 243 191 146 311 284 184 233 178 178 196 184 187 192
334 335 326 331 294 290 316 318 308 239 245 222 161 170 253 209 222 256 193 218 218 229 221 235 227 225 233 215 233 230 242 242 247 240 197 184 237 256 193 187 181 190 197 186 186
332 333 323 306 270 323 317 307 238 241 294 287 326 89 334 325 297 210 185 212 210 212 232 223 236 226 226 230 214 228 227 232 223 232 233 208 185 232 0 181 190 265 191 184 184
333 334 326 301 301 311 316 259 247 282 291 320 315 292 279 294 282 276 221 209 215 225 217 226 219 230 216 228 216 218 222 232 224 222 234 236 198 198 102 170 93 247 230 180 191
335 332 291 241 304 313 288 245 242 248 331 332 326 304 288 265 245 264 263 237 225 218 236 223 232 207 232 211 230 214 219 232 243 231 228 232 194 114 154 156 138 255 194 178 189
332 320 263 217 317 295 263 263 289 307 358 341 299 313 301 304 298 222 246 243 242 239 223 247 254 226 205 226 221 231 213 225 236 228 252 229 214 176 174 170 147 305 182 174 181
338 298 145 282 305 265 247 253 330 7 7 344 314 306 307 305 306 302 277 240 275 239 228 233 250 260 217 207 209 211 229 215 237 239 234 249 223 203 180 164 165 195 185 179 182
313 287 13 323 284 237 244 21 354 327 323 306 289 285 284 287 288 290 284 274 353 342 311 237 237 250 260 207 213 214 220 229 222 227 227 257 263 336 223 174 184 186 200 179 186
303 293 253 323 284 328 344 333 325 309 316 321 313 308 300 278 276 273 281 285 310 309 326 347 274 236 248 218 203 217 213 226 223 238 238 229 234 49 263 237 182 153 114 92 237
300 308 315 297 265 320 328 311 289 291 348 322 304 299 283 281 261 261 267 272 278 271 330 324 280 265 241 242 187 201 220 214 227 219 230 236 220 272 269 256 175 122 116 166 223
284 311 330 296 324 320 304 276 322 328 315 299 306 285 271 298 285 267 250 256 265 271 254 268 263 277 258 263 222 198 212 221 223 228 223 231 210 196 249 189 354 113 118 111 157
305 330 322 295 281 276 274 358 251 283 349 298 306 299 299 264 272 300 320 278 246 266 252 255 270 265 260 256 261 201 205 218 224 223 236 228 184 173 267 173 179 146 124 123 145
292 298 296 289 280 285 304 294 301 296 309 301 281 273 264 261 278 278 289 282 295 270 273 299 278 258 251 251 255 243 199 207 224 217 226 233 207 182 172 196 192 118 173 154 138